This is the latest recevied weather packets stored in our database for station/object SP3WRO-13. If no packets are shown the sender has not sent any weather packets the latest 10 day(s).
| Time | Temp. | Humidity | Pressure | Rain* | Wind** | Luminosity | Snow |
|---|---|---|---|---|---|---|---|
| 1777682660 | 5° C | 84% | 1021.1 hPa | - | - | - | - |
| 1777681760 | 5.56° C | 83% | 1021.2 hPa | - | - | - | - |
| 1777680860 | 5.56° C | 84% | 1021.2 hPa | - | - | - | - |
| 1777679960 | 6.11° C | 83% | 1021.2 hPa | - | - | - | - |
| 1777679059 | 6.67° C | 81% | 1021.1 hPa | - | - | - | - |
| 1777678159 | 6.67° C | 81% | 1021.1 hPa | - | - | - | - |
| 1777677259 | 6.67° C | 82% | 1021.2 hPa | - | - | - | - |
| 1777676359 | 6.67° C | 81% | 1021.2 hPa | - | - | - | - |
| 1777675459 | 7.78° C | 78% | 1021.2 hPa | - | - | - | - |
| 1777674560 | 7.78° C | 78% | 1021.2 hPa | - | - | - | - |
| 1777673659 | 8.33° C | 77% | 1021.2 hPa | - | - | - | - |
| 1777672759 | 8.33° C | 77% | 1021.2 hPa | - | - | - | - |
| 1777671859 | 8.89° C | 76% | 1021.2 hPa | - | - | - | - |
| 1777670956 | 9.44° C | 77% | 1021.2 hPa | - | - | - | - |
| 1777670056 | 9.44° C | 76% | 1021.2 hPa | - | - | - | - |
| 1777669155 | 10° C | 74% | 1021.2 hPa | - | - | - | - |
| 1777668255 | 10.56° C | 73% | 1021.1 hPa | - | - | - | - |
| 1777667355 | 11.11° C | 72% | 1021.1 hPa | - | - | - | - |
| 1777666455 | 11.67° C | 71% | 1021 hPa | - | - | - | - |
| 1777665555 | 11.67° C | 70% | 1021 hPa | - | - | - | - |
| 1777664655 | 11.67° C | 63% | 1020.9 hPa | - | - | - | - |
| 1777663755 | 12.22° C | 65% | 1020.8 hPa | - | - | - | - |
| 1777662855 | 13.33° C | 60% | 1020.7 hPa | - | - | - | - |
| 1777661955 | 13.33° C | 60% | 1020.4 hPa | - | - | - | - |
| 1777661055 | 14.44° C | 56% | 1020.2 hPa | - | - | - | - |
* Rain since midnight (hover to see other rain measurements)
** Current wind speed in m/s (hover to see current wind gust speed)